N5DGC Weather Reports


time (UTC)temp
C
wind
direction
speed
KPH
gust
KPH
rain 1hr
cm
rain 24hr
cm
rain mn
cm
humidity
%
barometer
mb
20260505184224 15 166 4.8 6.4 0.00 0.00 0.00 48 1231.5
20260505183720 15 65 3.2 6.4 0.00 0.00 0.00 48 1231.7
20260505183218 15 29 1.6 6.4 0.00 0.00 0.00 50 1231.7
20260505182714 15 46 1.6 4.8 0.00 0.00 0.00 48 1231.3
20260505182211 14 35 3.2 4.8 0.00 0.00 0.00 51 1231.5
20260505181708 14 112 3.2 4.8 0.00 0.00 0.00 52 1231.8
20260505181206 14 351 4.8 6.4 0.00 0.00 0.00 54 1231.8
20260505180701 13 344 3.2 6.4 0.00 0.00 0.00 58 1231.4
20260505180159 13 97 1.6 8.0 0.00 0.00 0.00 61 1231.7
20260505175654 15 88 3.2 9.7 0.00 0.00 0.00 53 1231.7
20260505175151 15 157 3.2 4.8 0.00 0.00 0.00 43 1231.4
20260505174648 15 47 3.2 3.2 0.00 0.00 0.00 42 1231.3
20260505174144 15 118 3.2 3.2 0.00 0.00 0.00 42 1231.3
20260505173641 16 57 1.6 11.3 0.00 0.00 0.00 41 1231.3
20260505173137 16 22 3.2 6.4 0.00 0.00 0.00 40 1231.2
20260505172635 16 356 0.0 6.4 0.00 0.00 0.00 41 1231.4
20260505172132 15 33 3.2 4.8 0.00 0.00 0.00 44 1231.1
20260505171626 15 344 6.4 6.4 0.00 0.00 0.00 44 1231.2
20260505171124 14 75 1.6 4.8 0.00 0.00 0.00 44 1231.3
20260505170621 13 70 4.8 4.8 0.00 0.00 0.00 45 1231.4
20260505170117 13 53 6.4 6.4 0.00 0.00 0.00 45 1231.5
20260505165612 13 84 3.2 6.4 0.00 0.00 0.00 44 1231.5
20260505165108 14 36 4.8 6.4 0.00 0.00 0.00 44 1231.7
20260505164604 14 6 3.2 9.7 0.00 0.00 0.00 44 1231.4
20260505164102 13 50 3.2 17.7 0.00 0.00 0.00 45 1231.2
20260505163600 13 344 4.8 9.7 0.00 0.00 0.00 45 1231.3
20260505163057 13 55 4.8 6.4 0.00 0.00 0.00 45 1231.4
20260505162555 13 331 8.0 14.5 0.00 0.00 0.00 45 1231.5
20260505162052 13 16 4.8 8.0 0.00 0.00 0.00 47 1231.4
20260505161549 12 7 6.4 8.0 0.00 0.00 0.00 48 1231.5
20260505161047 12 323 14.5 14.5 0.00 0.00 0.00 48 1231.7
20260505160544 12 74 4.8 11.3 0.00 0.00 0.00 51 1231.7
20260505153021 11 15 8.0 12.9 0.00 0.00 0.00 53 1232.1
20260505152518 11 349 8.0 20.9 0.00 0.00 0.00 52 1232.2
20260505152013 12 46 6.4 17.7 0.00 0.00 0.00 56 1232.4
20260505151509 12 349 6.4 19.3 0.00 0.00 0.00 56 1232.2
20260505151006 11 14 6.4 12.9 0.00 0.00 0.00 59 1232.2
20260505150503 11 40 4.8 16.1 0.00 0.00 0.00 60 1232.2
20260505140433 12 65 6.4 9.7 0.00 0.00 0.00 58 1232.2
20260505124846 13 51 3.2 3.2 0.00 0.00 0.00 39 1231.2
20260505124343 13 1 3.2 4.8 0.00 0.00 0.00 38 1231.1
20260505123839 13 35 0.0 4.8 0.00 0.00 0.00 38 1231.1
20260505123336 13 47 3.2 3.2 0.00 0.00 0.00 38 1231.2
20260505122832 13 326 3.2 3.2 0.00 0.00 0.00 38 1231.4
20260505122329 13 11 3.2 4.8 0.00 0.00 0.00 37 1231.2
20260505121826 13 93 3.2 4.8 0.00 0.00 0.00 37 1231.2
20260505121323 13 84 4.8 4.8 0.00 0.00 0.00 37 1231.2
20260505120819 13 93 3.2 4.8 0.00 0.00 0.00 37 1231.1
20260505120315 13 57 1.6 4.8 0.00 0.00 0.00 37 1231.3
20260505115814 13 51 3.2 4.8 0.00 0.00 0.00 37 1231.1
20260505115312 13 32 3.2 3.2 0.00 0.00 0.00 37 1231.0
20260505114809 13 0 3.2 4.8 0.00 0.00 0.00 37 1231.0
20260505114305 13 60 3.2 6.4 0.00 0.00 0.00 37 1231.2
20260505113802 13 82 1.6 4.8 0.00 0.00 0.00 37 1231.0
20260505113258 13 4 3.2 6.4 0.00 0.00 0.00 37 1231.0
20260505112754 13 42 1.6 6.4 0.00 0.00 0.00 37 1231.0
20260505112252 13 55 3.2 4.8 0.00 0.00 0.00 37 1231.0
20260505111752 13 44 1.6 6.4 0.00 0.00 0.00 36 1230.7
20260505111248 13 38 3.2 4.8 0.00 0.00 0.00 36 1230.6
20260505110744 13 76 4.8 4.8 0.00 0.00 0.00 36 1230.7
20260505110243 14 76 3.2 4.8 0.00 0.00 0.00 36 1231.2
20260505102218 13 79 1.6 3.2 0.00 0.00 0.00 34 1231.3
20260505101716 14 68 3.2 3.2 0.00 0.00 0.00 34 1231.3
20260505101212 14 93 1.6 3.2 0.00 0.00 0.00 34 1231.2
20260505100708 14 82 1.6 3.2 0.00 0.00 0.00 34 1231.3
20260505100206 14 97 3.2 3.2 0.00 0.00 0.00 33 1231.2
20260505095701 14 82 3.2 3.2 0.00 0.00 0.00 33 1230.8
20260505095159 14 103 1.6 3.2 0.00 0.00 0.00 33 1231.2
20260505094654 14 73 3.2 3.2 0.00 0.00 0.00 33 1231.1
20260505094151 14 72 3.2 4.8 0.00 0.00 0.00 33 1231.0
20260505093648 14 61 3.2 3.2 0.00 0.00 0.00 34 1231.2
20260505093145 14 86 1.6 3.2 0.00 0.00 0.00 34 1230.8
20260505092642 14 117 3.2 3.2 0.00 0.00 0.00 34 1230.8
20260505092141 14 166 3.2 4.8 0.00 0.00 0.00 34 1231.1
20260505091637 14 122 3.2 4.8 0.00 0.00 0.00 34 1231.2
20260505091135 14 133 3.2 4.8 0.00 0.00 0.00 34 1231.1
20260505090633 14 89 1.6 3.2 0.00 0.00 0.00 34 1231.2
20260505090131 15 107 1.6 3.2 0.00 0.00 0.00 33 1231.2
20260505085628 15 44 0.0 3.2 0.00 0.00 0.00 33 1231.2
20260505085126 15 99 0.0 3.2 0.00 0.00 0.00 33 1231.4
20260505084623 15 111 0.0 3.2 0.00 0.00 0.00 33 1231.5
20260505084122 15 99 1.6 3.2 0.00 0.00 0.00 32 1231.4
20260505083619 15 101 1.6 3.2 0.00 0.00 0.00 32 1231.4
20260505083115 15 59 1.6 3.2 0.00 0.00 0.00 32 1231.4
20260505082611 15 17 1.6 3.2 0.00 0.00 0.00 32 1231.5
20260505082108 15 20 3.2 4.8 0.00 0.00 0.00 31 1231.5
20260505081604 16 9 4.8 4.8 0.00 0.00 0.00 31 1231.7
20260505081102 16 294 3.2 6.4 0.00 0.00 0.00 31 1231.7
20260505080558 16 324 0.0 6.4 0.00 0.00 0.00 30 1231.8
20260505080055 16 355 3.2 3.2 0.00 0.00 0.00 30 1231.9
20260505075550 16 40 1.6 3.2 0.00 0.00 0.00 30 1231.9
20260505075047 16 63 3.2 6.4 0.00 0.00 0.00 30 1231.9
20260505074544 16 110 3.2 6.4 0.00 0.00 0.00 29 1232.1
20260505074042 16 42 6.4 6.4 0.00 0.00 0.00 29 1231.9
20260505073539 16 106 0.0 4.8 0.00 0.00 0.00 29 1232.0
20260505073038 16 342 6.4 6.4 0.00 0.00 0.00 30 1231.8
20260505072532 16 89 3.2 3.2 0.00 0.00 0.00 30 1231.8
20260505072029 16 44 0.0 4.8 0.00 0.00 0.00 30 1231.5
20260505071525 16 7 3.2 3.2 0.00 0.00 0.00 30 1231.7
20260505071023 16 60 3.2 3.2 0.00 0.00 0.00 29 1231.7
20260505070520 16 83 3.2 3.2 0.00 0.00 0.00 29 1231.5
20260505070016 16 32 1.6 4.8 0.00 0.00 0.00 29 1231.7
20260505065512 16 88 0.0 3.2 0.00 0.00 0.00 28 1231.3
20260505065009 17 18 3.2 4.8 0.00 0.00 0.00 28 1231.3
20260505064506 17 54 1.6 6.4 0.00 0.00 0.00 28 1231.2
20260505064004 17 319 0.0 6.4 0.00 0.00 0.00 28 1231.3
20260505063501 17 62 3.2 6.4 0.00 0.00 0.00 28 1231.3
20260505062956 17 43 3.2 4.8 0.00 0.00 0.00 27 1231.2
20260505062454 17 117 0.0 4.8 0.00 0.00 0.00 27 1231.3
20260505061950 17 29 3.2 6.4 0.00 0.00 0.00 26 1231.1
20260505061449 17 79 3.2 6.4 0.00 0.00 0.00 26 1231.3
20260505060946 17 10 0.0 4.8 0.00 0.00 0.00 26 1231.3
20260505060443 17 358 4.8 6.4 0.00 0.00 0.00 25 1231.2
20260505055939 17 337 0.0 6.4 0.00 0.00 0.00 25 1231.2
20260505055435 17 4 1.6 4.8 0.00 0.00 0.00 25 1231.2
20260505054932 17 16 3.2 6.4 0.00 0.00 0.00 25 1231.3
20260505054430 17 34 1.6 4.8 0.00 0.00 0.00 25 1231.3
20260505053927 17 38 1.6 6.4 0.00 0.00 0.00 25 1231.3
20260505053424 18 8 3.2 6.4 0.00 0.00 0.00 25 1231.1
20260505052921 18 49 1.6 4.8 0.00 0.00 0.00 25 1231.2
20260505052418 18 315 4.8 6.4 0.00 0.00 0.00 24 1231.0
20260505051915 18 12 3.2 4.8 0.00 0.00 0.00 24 1231.2
20260505051412 18 60 3.2 4.8 0.00 0.00 0.00 24 1231.0
20260505050910 18 31 0.0 3.2 0.00 0.00 0.00 24 1231.0
20260505050409 18 16 3.2 3.2 0.00 0.00 0.00 24 1231.0
20260505041336 18 55 0.0 3.2 0.00 0.00 0.00 24 1230.8
20260505040833 19 35 0.0 3.2 0.00 0.00 0.00 24 1230.7
20260505040331 19 51 1.6 3.2 0.00 0.00 0.00 24 1230.7
20260505035827 19 218 0.0 3.2 0.00 0.00 0.00 24 1230.7
20260505035323 19 75 0.0 3.2 0.00 0.00 0.00 23 1230.5
20260505034820 20 69 0.0 3.2 0.00 0.00 0.00 23 1230.7
20260505034317 20 103 1.6 3.2 0.00 0.00 0.00 23 1230.4
20260505033814 20 157 3.2 4.8 0.00 0.00 0.00 23 1230.5
20260505033311 20 283 1.6 4.8 0.00 0.00 0.00 23 1230.4
20260505032809 20 324 1.6 6.4 0.00 0.00 0.00 23 1230.4
20260505032305 20 16 1.6 4.8 0.00 0.00 0.00 23 1230.3
20260505031802 20 324 0.0 3.2 0.00 0.00 0.00 22 1230.1
20260505031258 20 1 0.0 3.2 0.00 0.00 0.00 22 1230.0
20260505030756 20 33 1.6 6.4 0.00 0.00 0.00 22 1230.1
20260505030252 20 296 4.8 8.0 0.00 0.00 0.00 22 1230.0
20260505025747 20 10 3.2 6.4 0.00 0.00 0.00 21 1230.0
20260505025246 20 5 4.8 9.7 0.00 0.00 0.00 21 1229.9
20260505024744 20 352 3.2 8.0 0.00 0.00 0.00 21 1229.8
20260505024241 20 23 3.2 12.9 0.00 0.00 0.00 21 1229.8
20260505023738 21 296 4.8 11.3 0.00 0.00 0.00 21 1229.7
20260505023235 21 353 4.8 9.7 0.00 0.00 0.00 20 1229.7
20260505022732 21 0 4.8 8.0 0.00 0.00 0.00 20 1229.7
20260505022229 21 348 4.8 11.3 0.00 0.00 0.00 20 1229.6
20260505021726 21 341 4.8 9.7 0.00 0.00 0.00 20 1229.7
20260505021223 21 286 3.2 8.0 0.00 0.00 0.00 20 1229.7
20260505020719 21 346 3.2 8.0 0.00 0.00 0.00 20 1229.6
20260505020214 21 310 3.2 8.0 0.00 0.00 0.00 20 1229.7
20260505015712 21 5 0.0 4.8 0.00 0.00 0.00 20 1229.2
20260505015209 21 75 3.2 8.0 0.00 0.00 0.00 19 1229.1
20260505014705 21 203 6.4 9.7 0.00 0.00 0.00 20 1229.1
20260505014203 21 342 4.8 8.0 0.00 0.00 0.00 19 1229.2
20260505013659 21 3 3.2 4.8 0.00 0.00 0.00 19 1229.1
20260505013157 22 344 3.2 6.4 0.00 0.00 0.00 19 1229.1
20260505012655 22 306 6.4 8.0 0.00 0.00 0.00 19 1228.9
20260505012152 22 358 3.2 8.0 0.00 0.00 0.00 19 1228.9
20260505011652 22 321 3.2 8.0 0.00 0.00 0.00 19 1228.6
20260505011150 22 17 3.2 6.4 0.00 0.00 0.00 19 1228.7
20260505010645 22 300 4.8 6.4 0.00 0.00 0.00 19 1228.7
20260505010142 22 190 3.2 9.7 0.00 0.00 0.00 19 1229.0
20260505005638 22 68 3.2 8.0 0.00 0.00 0.00 18 1228.9
20260505005135 22 302 3.2 6.4 0.00 0.00 0.00 18 1228.9
20260505004632 22 40 3.2 4.8 0.00 0.00 0.00 18 1228.7
20260505004129 22 309 6.4 8.0 0.00 0.00 0.00 18 1228.7
20260505003626 22 338 6.4 11.3 0.00 0.00 0.00 18 1229.0
20260505003124 22 82 3.2 9.7 0.00 0.00 0.00 18 1229.0
20260505002619 23 27 3.2 11.3 0.00 0.00 0.00 17 1229.1
20260505002118 23 326 3.2 11.3 0.00 0.00 0.00 17 1229.2
20260505001615 23 341 3.2 6.4 0.00 0.00 0.00 17 1229.0
20260505001112 23 320 4.8 8.0 0.00 0.00 0.00 16 1229.1
20260505000609 23 34 3.2 8.0 0.00 0.00 0.00 16 1229.2
20260505000107 23 269 6.4 8.0 0.00 0.00 0.00 16 1229.0
20260504235603 23 0 4.8 8.0 0.00 0.00 0.00 16 1229.0
20260504235100 23 27 6.4 11.3 0.00 0.00 0.00 16 1229.1
20260504234557 23 102 4.8 14.5 0.00 0.00 0.00 16 1229.0
20260504234054 23 246 3.2 8.0 0.00 0.00 0.00 15 1229.0
20260504233549 23 320 8.0 9.7 0.00 0.00 0.00 15 1229.1
20260504233046 23 189 0.0 11.3 0.00 0.00 0.00 15 1229.2
20260504232543 23 70 3.2 9.7 0.00 0.00 0.00 14 1229.3
20260504232041 23 338 3.2 8.0 0.00 0.00 0.00 14 1229.3
20260504231537 23 306 3.2 9.7 0.00 0.00 0.00 14 1229.2
20260504231033 23 34 3.2 8.0 0.00 0.00 0.00 14 1229.3
20260504230530 23 138 6.4 9.7 0.00 0.00 0.00 13 1229.4
20260504230029 23 304 8.0 9.7 0.00 0.00 0.00 13 1229.1
20260504225526 23 8 1.6 6.4 0.00 0.00 0.00 13 1229.3
20260504225023 23 306 3.2 8.0 0.00 0.00 0.00 13 1229.2
20260504224519 23 321 4.8 12.9 0.00 0.00 0.00 13 1229.3
20260504224017 23 6 6.4 8.0 0.00 0.00 0.00 13 1229.4
20260504223513 24 244 3.2 9.7 0.00 0.00 0.00 13 1229.3
20260504223009 24 303 3.2 19.3 0.00 0.00 0.00 13 1229.3
20260504222506 24 349 4.8 8.0 0.00 0.00 0.00 13 1229.4
20260504222003 25 16 0.0 8.0 0.00 0.00 0.00 13 1229.7
20260504221500 24 100 3.2 6.4 0.00 0.00 0.00 13 1229.7
20260504220958 24 91 3.2 8.0 0.00 0.00 0.00 13 1229.9
20260504220454 25 81 3.2 9.7 0.00 0.00 0.00 13 1229.7
20260504215951 25 69 4.8 9.7 0.00 0.00 0.00 12 1229.9
20260504215447 24 27 4.8 12.9 0.00 0.00 0.00 12 1229.8
20260504214944 25 70 4.8 9.7 0.00 0.00 0.00 12 1229.9
20260504214440 25 10 3.2 6.4 0.00 0.00 0.00 13 1230.1
20260504213937 25 322 4.8 11.3 0.00 0.00 0.00 13 1230.3
20260504213433 25 54 3.2 9.7 0.00 0.00 0.00 12 1230.1
20260504212931 25 126 1.6 6.4 0.00 0.00 0.00 12 1230.0
20260504212426 26 338 3.2 9.7 0.00 0.00 0.00 12 1229.9
20260504211925 25 61 4.8 6.4 0.00 0.00 0.00 13 1230.1
20260504211420 25 312 9.7 9.7 0.00 0.00 0.00 13 1230.3
20260504210918 25 357 0.0 6.4 0.00 0.00 0.00 13 1230.4
20260504210415 25 76 3.2 6.4 0.00 0.00 0.00 12 1230.6
20260504205912 25 83 4.8 14.5 0.00 0.00 0.00 12 1230.7
20260504205410 25 9 3.2 8.0 0.00 0.00 0.00 13 1230.8
20260504204908 26 70 8.0 11.3 0.00 0.00 0.00 13 1231.3
20260504204406 26 50 3.2 6.4 0.00 0.00 0.00 14 1231.2
20260504203905 26 186 9.7 9.7 0.00 0.00 0.00 14 1231.0
20260504203401 26 181 4.8 14.5 0.00 0.00 0.00 13 1231.5
20260504202857 26 60 3.2 14.5 0.00 0.00 0.00 14 1231.5
20260504202354 25 188 1.6 8.0 0.00 0.00 0.00 15 1231.4
20260504201851 25 284 6.4 9.7 0.00 0.00 0.00 15 1231.8
20260504201348 25 201 3.2 11.3 0.00 0.00 0.00 16 1231.5
20260504200846 25 197 6.4 17.7 0.00 0.00 0.00 16 1231.8
20260504200342 25 340 1.6 6.4 0.00 0.00 0.00 16 1231.9
20260504195839 25 1 1.6 4.8 0.00 0.00 0.00 16 1232.0
20260504195334 24 322 4.8 9.7 0.00 0.00 0.00 17 1232.0
20260504194831 24 318 6.4 9.7 0.00 0.00 0.00 16 1232.2
20260504194327 24 323 8.0 9.7 0.00 0.00 0.00 16 1232.4
20260504193823 24 338 0.0 6.4 0.00 0.00 0.00 17 1232.5
20260504193321 23 177 4.8 4.8 0.00 0.00 0.00 17 1232.2
20260504192819 23 336 6.4 9.7 0.00 0.00 0.00 17 1232.6
20260504192317 23 56 3.2 12.9 0.00 0.00 0.00 18 1232.5
20260504191816 23 335 9.7 16.1 0.00 0.00 0.00 17 1232.7
20260504191313 24 35 0.0 8.0 0.00 0.00 0.00 17 1232.6
20260504190808 23 341 3.2 8.0 0.00 0.00 0.00 18 1232.9
20260504190304 23 231 8.0 11.3 0.00 0.00 0.00 18 1232.6
20260504185801 23 76 1.6 12.9 0.00 0.00 0.00 18 1232.9
20260504185258 23 250 3.2 6.4 0.00 0.00 0.00 19 1232.8
20260504184754 23 12 4.8 8.0 0.00 0.00 0.00 18 1233.2